Regional Weather Roundup
Issued by NWS Upton, NY

Current Version | Previous Version | Text Only | Print | Product List | Glossary Off
Versions: 1 2 3 4 5 6 7 8 9 10 11 12 13 14 15 16 17 18 19 20 21 22 23 24 25 26 27 28 29 30 31 32 33 34 35 36 37 38 39 40 41 42 43 44 45 46 47 48 49 50
000 ASUS41 KOKX 300208 RWROKX REGIONAL WEATHER ROUNDUP NATIONAL WEATHER SERVICE NEW YORK NY 1000 PM EDT WED JUL 29 2015 NOTE: "FAIR" INDICATES FEW OR NO CLOUDS BELOW 12,000 FEET WITH NO SIGNIFICANT WEATHER AND/OR OBSTRUCTIONS TO VISIBILITY. NYZ071-072-176-178-NJZ106-104-300300- NEW YORK CITY METRO AREA CITY SKY/WX TMP DP RH WIND PRES REMARKS CENTRAL PARK CLEAR 86 70 58 VRB7 29.96R HX 90 LAGUARDIA APRT PTCLDY 86 71 60 SW10 29.92R HX 91 KENNEDY INTL MOCLDY 83 73 72 SW10 29.94R NEWARK/LIBERTY PTCLDY 86 71 60 SW12 29.92R HX 91 BRNX BOT. GARD N/A 86 70 58 W15 29.94S HX 90 TETERBORO CLEAR 87 70 56 SW8 29.91R HX 92 $$ NYZ177-179-078>081-300300- LONG ISLAND NEW YORK CITY SKY/WX TMP DP RH WIND PRES REMARKS FARMINGDALE CLEAR 81 73 76 SW10 29.94R ISLIP PTCLDY 79 72 79 SW9 29.93R SHIRLEY CLEAR 80 73 79 SW8 29.95R WESTHAMPTON CLEAR 78 74 87 SW6 29.96R MONTAUK POINT N/A 78 72 81 SW8 29.95R $$ NYZ052-065-067-300300- HUDSON VALLEY CITY SKY/WX TMP DP RH WIND PRES REMARKS WHITE PLAINS CLEAR 77 71 82 CALM 29.94R NEWBURGH CLEAR 79 66 65 CALM 29.94S MONTGOMERY CLEAR 74 68 81 CALM 29.93R POUGHKEEPSIE CLEAR 77 68 73 CALM 29.91R ALBANY PTCLDY 78 65 63 CALM 29.89S $$ NJZ001-105-106-008-010-013-015-019>022-104-300300- NEW JERSEY CITY SKY/WX TMP DP RH WIND PRES REMARKS NEWARK/LIBERTY PTCLDY 86 71 60 SW12 29.92R HX 91 TETERBORO CLEAR 87 70 56 SW8 29.91R HX 92 CALDWELL PTCLDY 84 65 52 SW3 29.93R MORRISTOWN CLEAR 82 70 65 SW6 29.94 SOMERVILLE PTCLDY 81 71 71 CALM 29.92R SUSSEX CLEAR 73 69 87 CALM 29.95R ANDOVER N/A 73 71 93 CALM 29.96R TRENTON CLEAR 81 72 74 SW9 29.95R MILLVILLE CLEAR 77 74 90 CALM 29.97R ATLANTIC CITY CLEAR 78 73 84 S6 29.98R WRIGHTSTOWN CLEAR 77 73 87 S5 29.94R TOMS RIVER N/A 77 72 83 SW7 29.97R BELMAR CLEAR 81 68 65 SW7 29.96R $$ PAZ047>061-062-071-300300- EASTERN PENNSYLVANIA CITY SKY/WX TMP DP RH WIND PRES REMARKS PHILADELPHIA MOCLDY 82 72 71 S7 29.96R ALLENTOWN CLEAR 82 71 69 SW8 29.95R SCRANTON CLEAR 81 66 60 SW3 29.95R $$ CTZ002-004>006-009-010-012-RIZ004-006-007-MAZ004-011-015-300300- SOUTHERN NEW ENGLAND IN CT CITY SKY/WX TMP DP RH WIND PRES REMARKS BRADLEY INTL PTCLDY 81 66 60 S6 29.91R HARTFORD CLEAR 79 68 69 SE3 29.92R DANBURY CLEAR 80 67 64 S7 29.95R WTRBRY/OXFORD CLEAR 79 64 61 CALM 29.97S BRIDGEPORT CLEAR 81 71 71 S6 29.93R MERIDEN CLEAR 77 66 68 CALM 29.93R NEW HAVEN CLEAR 80 70 71 SW9 29.93R CHESTER FAIR 79 68 69 SW5 29.95S GROTON CLEAR 74 69 85 SW6 29.93R WILLIMANTIC CLEAR 78 68 71 CALM 29.93R IN RI CITY SKY/WX TMP DP RH WIND PRES REMARKS PROVIDENCE PTCLDY 77 69 76 S7 29.92S BLOCK ISLAND N/A 73 73 100 SW12 29.95R WESTERLY CLEAR 77 68 73 SW5 29.94R IN MA CITY SKY/WX TMP DP RH WIND PRES REMARKS BOSTON PTCLDY 87 68 52 VRB7G17 29.89R HX 90 WORCESTER CLEAR 75 65 70 W7 29.96R WESTFIELD CLEAR 73 70 90 CALM 29.91S PROVINCETOWN CLEAR 73 64 73 SW7 29.91R NANTUCKET CLOUDY 72 71 97 SW9 29.94R FOG $$ ANZ330-335-338-340-345-350-353-355-300300- COASTAL MARINE OBSERVATIONS STATION/POSITION TIME SKY/WX TEMP WIND PRES VSBY WAVE AIR SEA DIR/SP/G HT/PER (UTC) (F) (DEG/KT/KT) (MB) (MI) (FT/S) NY HARB ENTRANCE 0150 79 77 220/ 14/ 16 1013.3 3/ 4 4S FIRE IS NOT AVBL 20S FIRE ISLAND 0150 77 74 220/ 14/ 16 1013.8 3/ 4 GREAT SOUTH BAY 0100 80 82 230/ 12/ 17 N/A 23SW MTP 0150 76 76 240/ 14/ 16 1013.7 3/10 HUDSON CANYON NOT AVBL KINGS POINT 0112 81 N/A EXECUTION ROCKS 0100 78 200/ 4/ 6 N/A CENTRAL LI SOUND NOT AVBL EASTERN LI SOUND 0100 73 69 210/ 6/ 8 N/A ROBBINS REEF 0112 85 N/A $$ >>>>>>>>>>>>>>>>>>>>>>>>>>>> KEY <<<<<<<<<<<<<<<<<<<<<<<<<<< > < > SKY/WX - SKY CONDITION/PRESENT WEATHER < > TMP - TEMPERATURE IN FAHRENHEIT < > DP - DEWPOINT IN FAHRENHEIT < > RH - RELATIVE HUMIDITY IN PERCENT < > WIND - DIRECTION AND SPEED IN MPH < > PRES - MEAN SEA LEVEL PRESSURE IN INCHES OF HG < > WCI - WIND CHILL INDEX < > VSB - VISIBILITY IN MILES < > HX - HEAT INDEX < > TC - TEMPERATURE IN CELSIUS < > VRB - VARIABLE WIND DIRECTION < > < >>>>>>>>>>>>>>>>>>>>>>>>>>>> KEY <<<<<<<<<<<<<<<<<<<<<<<<<<<

USA.gov is the U.S. government's official web portal to all federal, state and local government web resources and services.